[[{"header":{"parameterUnit":"m.s-1","parameterCategory":1,"la1":30.2991,"la2":30.254,"lo1":-89.0895,"lo2":-89.0444,"dy":0.0017,"dx":0.0017,"nx":28,"ny":28,"refTime":"2026-01-01T09:00:00:Z","depth":0,"parameterNumber":2,"parameterNumberName":"U-component_of_WINDS"},"data":[0,0,0,0,0,0,0,0,0,0,0,0,0,0,0,0,0,0,0,0,0,0,0,0,0,0,0,0,0,0,0,0,0,0,0,0,0,0,0,0,0,0,0,0,0,0,0,0,0,0,0,0,0,0,0,0,0,0,3.7652,3.7654,0,3.7836,3.7838,3.784,3.7819,3.7816,3.7813,3.781,3.8004,3.8011,3.8019,0,0,0,0,0,0,0,0,0,0,0,0,0,3.7288,3.7295,3.7652,3.7654,3.7657,3.7835,3.7838,3.784,3.7819,3.7816,3.7812,3.7809,3.8001,3.801,3.802,0,0,0,0,0,0,0,0,0,0,0,0,0,3.7457,3.7297,3.7652,3.7668,3.7671,3.7835,3.7838,3.7841,3.782,3.7816,3.7811,3.7807,3.7998,3.8009,3.8021,3.8183,0,0,3.8057,3.8062,0,0,0,0,0,0,0,0,3.7447,3.747,3.7663,3.7667,3.7671,3.78,3.778,3.7956,3.7821,3.7764,3.781,3.7805,3.794,3.7956,3.8,3.8192,3.82,3.8058,3.8065,3.807,3.8074,0,0,0,0,0,0,0,3.7436,3.7462,3.7725,3.7666,3.7671,3.7667,3.7686,3.7814,3.7874,3.7768,3.7767,3.7789,3.7941,3.7989,3.8005,3.8203,3.8058,3.8068,3.8076,3.808,3.8537,3.8542,0,0,0,0,0,0,3.7419,3.7453,3.7719,3.773,3.7546,3.7677,3.7699,3.7763,3.7873,3.7885,3.7793,3.7787,3.7971,3.7991,3.8011,3.8208,3.807,3.8081,3.8088,3.8532,3.8538,3.8543,0,0,0,0,0,0,3.7412,3.7443,3.7712,3.7591,3.7625,3.7688,3.7761,3.7769,3.7817,3.7891,3.7902,3.783,3.7968,3.7995,3.814,3.8215,3.8087,3.8098,3.8526,3.8534,3.8541,3.8603,0,0,0,0,0,0,3.7401,3.7441,3.7501,3.7593,3.7632,3.7836,3.7765,3.7776,3.7837,3.7831,3.7929,3.7941,3.7967,3.8122,3.8152,3.8229,3.8107,3.852,3.8529,3.8538,3.8595,3.8612,3.8627,0,0,0,0,0,3.7388,3.7513,3.7505,3.7537,3.7709,3.784,3.7863,3.7888,3.7843,3.7905,3.7953,3.7938,3.8202,3.8137,3.817,3.8252,3.8515,3.8527,3.8538,3.8588,3.8609,3.8626,0,0,0,0,0,0,3.743,3.7525,3.7517,3.7674,3.7749,3.7836,3.7916,3.7909,3.8,3.7991,3.802,3.8043,3.8189,3.8235,3.8162,3.8415,3.8352,3.8371,3.8379,3.84,3.8416,3.8402,3.8117,0,0,0,0,0,3.7458,3.7555,3.7633,3.7764,3.7802,3.7853,3.7911,3.7923,3.8003,3.8035,3.8093,3.8172,3.8273,3.8339,3.8436,3.8601,3.8623,3.8674,3.869,3.8702,3.8718,3.881,3.8834,3.8581,3.858,3.858,0,0,3.7516,3.7579,3.7639,3.7774,3.7834,3.7935,3.7879,3.7989,3.8065,3.8052,3.8193,3.8238,3.8329,3.8485,3.8557,3.8528,3.8793,3.8717,3.8726,3.8736,3.8824,3.8848,3.8869,3.8588,3.8587,3.8586,0,0,3.7673,3.7731,3.7847,3.7907,3.7997,3.803,3.8058,3.8146,3.8176,3.8317,3.8309,3.8401,3.8573,3.8638,3.8694,3.8876,3.8866,3.8907,3.899,3.908,3.91,3.9117,3.9183,3.9207,3.8922,3.8922,3.8922,0,3.7735,3.7886,3.7908,3.8019,3.8079,3.807,3.8188,3.8247,3.8365,3.8407,3.8372,3.8589,3.8649,3.882,3.8865,3.891,3.8944,3.8896,3.9095,3.9113,3.913,3.9193,3.9218,3.8927,3.8926,3.8926,3.8925,0,3.7957,3.8062,3.8145,3.8258,3.8327,3.8442,3.8482,3.8551,3.8557,3.8594,3.8739,3.881,3.8921,3.8963,3.8971,3.9137,3.9116,3.9088,3.9026,3.9158,3.9218,3.9242,3.8933,3.8931,3.893,3.8929,0,0,3.8148,3.827,3.83,3.8351,3.845,3.8532,3.8647,3.8754,3.8812,3.8894,3.8992,3.9138,3.9112,3.9175,3.9191,3.9269,3.941,3.9232,3.9234,3.9263,3.9597,3.9618,3.9646,3.9403,3.9408,3.9412,3.959,0,3.8316,3.8516,3.8539,3.8719,3.8817,3.881,3.891,3.8982,3.9019,3.9109,3.9152,3.9255,3.9213,3.9251,3.9328,3.9376,3.9478,3.9364,3.9496,3.9501,3.9475,3.9677,3.97,3.9865,3.9614,3.9618,3.962,0,3.8539,3.8625,3.8814,3.8899,3.8941,3.903,3.9131,3.9216,3.9298,3.932,3.939,3.9396,3.9516,3.9448,3.9615,3.9537,3.9593,3.9625,3.9632,3.9646,3.9569,3.9698,3.9918,3.9943,3.9658,3.9655,3.9652,0,3.866,3.8823,3.8957,3.9001,3.9104,3.9167,3.9213,3.9291,3.9354,3.9442,3.9483,3.9585,3.9641,3.972,3.9753,3.9701,3.9919,3.9854,3.9941,3.9941,3.9988,3.9985,4.0221,4.0023,4.0023,4.0022,4.0022,0,3.8846,3.8962,3.9013,3.9096,3.9226,3.9252,3.9381,3.9425,3.9494,3.9586,3.9586,3.9673,3.9711,3.9805,3.9832,3.9966,3.9991,4.0014,4.002,4.0014,4.0011,4.0052,4.0041,4.0029,4.0027,4.0026,4.0025,0,3.9003,3.9042,3.9188,3.9273,3.9297,3.9389,3.9462,3.9543,3.9579,3.9696,3.9725,3.9783,3.9893,3.9933,4.0068,4.0086,4.0242,4.0238,4.0214,4.0215,4.0301,4.0293,4.0572,4.061,4.0386,4.0388,4.039,0,3.912,3.9208,3.9302,3.9363,3.9411,3.9509,3.9573,3.9603,3.967,3.977,3.9839,3.9948,4.0037,4.0213,4.0268,4.0371,4.037,4.0461,4.0386,4.0378,4.0373,4.0367,4.0377,4.0475,4.0478,4.048,4.0481,0,3.9323,3.9337,3.9428,3.9527,3.9602,3.9682,3.9759,3.9809,3.985,3.9926,4.0037,4.0106,4.0242,4.0351,4.0457,4.0506,4.0502,4.0504,4.053,4.0526,4.0508,4.052,4.0252,4.0498,4.0496,4.0495,4.0494,4.0493,3.9464,3.9543,3.9621,3.9723,3.9783,3.9855,3.9935,3.9981,4.0074,4.0186,4.0198,4.0318,4.0399,4.054,4.0594,4.0689,4.0665,4.0702,4.0712,4.0721,4.0728,4.0492,4.0709,4.0708,4.0708,4.0708,4.0707,0,3.9668,3.9717,3.981,3.9917,3.9998,3.9984,4.0069,4.0137,4.0243,4.0317,4.0404,4.0533,4.0638,4.0701,4.0807,4.0872,4.0872,4.0899,4.0895,4.0906,4.0743,4.071,4.0896,4.0896,4.0896,4.0896,4.0896,4.0896,3.9783,3.9916,3.994,4.0103,4.0152,4.0269,4.0318,4.0385,4.0445,4.0588,4.0675,4.0714,4.0785,4.0896,4.0992,4.1008,4.1048,4.1077,4.109,4.0937,4.0918,4.0899,4.0868,4.1085,4.1085,4.1246,4.1247,4.1248]},{"header":{"parameterUnit":"m.s-1","parameterCategory":1,"la1":30.2991,"la2":30.254,"lo1":-89.0895,"lo2":-89.0444,"dy":0.0017,"dx":0.0017,"nx":28,"ny":28,"refTime":"2026-01-01T09:00:00:Z","depth":0,"parameterNumber":3,"parameterNumberName":"V-component_of_WINDS"},"data":[0,0,0,0,0,0,0,0,0,0,0,0,0,0,0,0,0,0,0,0,0,0,0,0,0,0,0,0,0,0,0,0,0,0,0,0,0,0,0,0,0,0,0,0,0,0,0,0,0,0,0,0,0,0,0,0,0,0,-0.5685,-0.5685,0,-0.5769,-0.577,-0.5771,-0.5804,-0.5804,-0.5804,-0.5803,-0.5892,-0.5894,-0.5897,0,0,0,0,0,0,0,0,0,0,0,0,0,-0.5553,-0.5556,-0.5684,-0.5686,-0.5687,-0.5769,-0.577,-0.5772,-0.5804,-0.5804,-0.5803,-0.5803,-0.5891,-0.5894,-0.5897,0,0,0,0,0,0,0,0,0,0,0,0,0,-0.5621,-0.5556,-0.5684,-0.5713,-0.5716,-0.5769,-0.577,-0.5772,-0.5804,-0.5804,-0.5803,-0.5803,-0.589,-0.5894,-0.5898,-0.5929,0,0,-0.591,-0.5911,0,0,0,0,0,0,0,0,-0.5618,-0.5626,-0.5707,-0.5711,-0.5715,-0.5776,-0.5757,-0.5825,-0.5804,-0.5771,-0.5803,-0.5803,-0.5854,-0.5861,-0.5877,-0.5933,-0.5937,-0.591,-0.5912,-0.5914,-0.5915,0,0,0,0,0,0,0,-0.5613,-0.5623,-0.5718,-0.5709,-0.5713,-0.5722,-0.5731,-0.577,-0.5813,-0.5774,-0.5776,-0.5786,-0.5856,-0.5873,-0.588,-0.5938,-0.591,-0.5913,-0.5916,-0.5917,-0.6026,-0.6027,0,0,0,0,0,0,-0.5603,-0.5619,-0.5715,-0.5721,-0.5664,-0.5725,-0.5735,-0.5757,-0.5813,-0.5821,-0.5786,-0.5787,-0.5867,-0.5875,-0.5883,-0.5924,-0.5914,-0.5917,-0.592,-0.6026,-0.6026,-0.6027,0,0,0,0,0,0,-0.56,-0.5611,-0.5712,-0.567,-0.5684,-0.5727,-0.5751,-0.5758,-0.5776,-0.5822,-0.583,-0.5796,-0.5867,-0.5877,-0.5918,-0.5928,-0.5919,-0.5923,-0.6025,-0.6026,-0.6027,-0.6007,0,0,0,0,0,0,-0.5596,-0.561,-0.5622,-0.567,-0.5686,-0.5744,-0.5752,-0.576,-0.5783,-0.5785,-0.5834,-0.5842,-0.5868,-0.5912,-0.5921,-0.5933,-0.5926,-0.6024,-0.6025,-0.6026,-0.6007,-0.6007,-0.6007,0,0,0,0,0,-0.5591,-0.5613,-0.5622,-0.5633,-0.5701,-0.5745,-0.5754,-0.5783,-0.5783,-0.5796,-0.5826,-0.584,-0.5925,-0.5915,-0.5927,-0.594,-0.6024,-0.6025,-0.6026,-0.6007,-0.6007,-0.6007,0,0,0,0,0,0,-0.5564,-0.5619,-0.563,-0.5668,-0.5701,-0.575,-0.5767,-0.5782,-0.5816,-0.5817,-0.5852,-0.5863,-0.59,-0.5924,-0.5912,-0.5974,-0.5976,-0.5979,-0.5957,-0.5957,-0.5958,-0.5951,-0.5929,0,0,0,0,0,-0.5562,-0.5592,-0.5639,-0.5668,-0.5684,-0.5723,-0.5743,-0.5762,-0.5798,-0.5813,-0.5846,-0.5881,-0.5916,-0.5938,-0.5973,-0.6011,-0.6023,-0.6025,-0.6025,-0.6025,-0.6028,-0.6052,-0.6054,-0.6031,-0.6031,-0.6031,0,0,-0.5559,-0.5593,-0.561,-0.5663,-0.5692,-0.5723,-0.5734,-0.5766,-0.579,-0.5818,-0.5858,-0.5883,-0.5925,-0.5965,-0.5984,-0.5986,-0.6037,-0.6027,-0.6027,-0.6029,-0.6053,-0.6055,-0.6057,-0.6032,-0.6032,-0.6032,0,0,-0.5569,-0.5597,-0.5625,-0.5653,-0.5696,-0.5722,-0.5728,-0.5775,-0.5793,-0.5834,-0.5856,-0.5885,-0.5944,-0.5974,-0.5996,-0.602,-0.6035,-0.603,-0.6031,-0.6053,-0.6055,-0.6057,-0.6066,-0.6069,-0.6033,-0.6033,-0.6033,0,-0.556,-0.5607,-0.5637,-0.5669,-0.5692,-0.5719,-0.5748,-0.5774,-0.5826,-0.5842,-0.5844,-0.5919,-0.5949,-0.5997,-0.6003,-0.602,-0.603,-0.6024,-0.6052,-0.6054,-0.6056,-0.6066,-0.6069,-0.6032,-0.6032,-0.6032,-0.6032,0,-0.5594,-0.5627,-0.5644,-0.5693,-0.5719,-0.5749,-0.5785,-0.5807,-0.5825,-0.5851,-0.5893,-0.5931,-0.5974,-0.5987,-0.6004,-0.6037,-0.6038,-0.6045,-0.6047,-0.6057,-0.6067,-0.607,-0.6031,-0.6031,-0.6031,-0.6031,0,0,-0.5588,-0.5655,-0.5661,-0.5684,-0.5734,-0.576,-0.5792,-0.5834,-0.5854,-0.5889,-0.5918,-0.5968,-0.5976,-0.6002,-0.6023,-0.6043,-0.606,-0.6048,-0.605,-0.605,-0.6101,-0.6095,-0.6098,-0.6071,-0.6072,-0.6072,-0.6097,0,-0.5605,-0.5663,-0.5692,-0.5737,-0.5769,-0.5795,-0.5823,-0.5858,-0.5883,-0.5915,-0.5943,-0.5979,-0.5986,-0.6002,-0.6022,-0.6054,-0.6071,-0.6052,-0.6099,-0.61,-0.6087,-0.6103,-0.6096,-0.6118,-0.6101,-0.6102,-0.6102,0,-0.5632,-0.5668,-0.5716,-0.5764,-0.5778,-0.5803,-0.5844,-0.5874,-0.5914,-0.5931,-0.5961,-0.5982,-0.6018,-0.6018,-0.607,-0.6056,-0.6077,-0.6096,-0.6097,-0.6103,-0.6102,-0.6109,-0.6126,-0.6129,-0.6108,-0.6108,-0.6107,0,-0.5624,-0.5684,-0.5721,-0.574,-0.5796,-0.5813,-0.5838,-0.5877,-0.5901,-0.5938,-0.5955,-0.5995,-0.6018,-0.605,-0.6082,-0.6079,-0.6131,-0.6133,-0.6147,-0.6146,-0.6157,-0.6155,-0.6177,-0.617,-0.617,-0.6169,-0.6169,0,-0.564,-0.5669,-0.5718,-0.5741,-0.5774,-0.5808,-0.5841,-0.5868,-0.5903,-0.5933,-0.5959,-0.5986,-0.6027,-0.606,-0.6086,-0.6125,-0.6135,-0.6151,-0.6157,-0.6149,-0.6147,-0.6163,-0.6162,-0.617,-0.617,-0.617,-0.617,0,-0.5636,-0.567,-0.5712,-0.5762,-0.5776,-0.5799,-0.5842,-0.5866,-0.5893,-0.5931,-0.5941,-0.5985,-0.6025,-0.6061,-0.6114,-0.6131,-0.6172,-0.618,-0.6158,-0.6161,-0.6174,-0.6172,-0.6207,-0.6213,-0.6201,-0.6201,-0.6201,0,-0.5644,-0.5667,-0.572,-0.5741,-0.5765,-0.5799,-0.5824,-0.5859,-0.5884,-0.5933,-0.5951,-0.5993,-0.6028,-0.6092,-0.6129,-0.617,-0.618,-0.6189,-0.6186,-0.6177,-0.6181,-0.6179,-0.6182,-0.6189,-0.6189,-0.6189,-0.6189,0,-0.5655,-0.5671,-0.5705,-0.5746,-0.5775,-0.5809,-0.5843,-0.586,-0.5902,-0.5929,-0.597,-0.5997,-0.6052,-0.6094,-0.614,-0.6167,-0.6185,-0.6189,-0.6195,-0.6186,-0.6173,-0.6181,-0.6158,-0.6188,-0.6188,-0.6188,-0.6188,-0.6188,-0.5658,-0.568,-0.5721,-0.5759,-0.5789,-0.5821,-0.5846,-0.5877,-0.5912,-0.5959,-0.5978,-0.602,-0.6062,-0.6125,-0.6152,-0.6187,-0.619,-0.6198,-0.62,-0.6201,-0.62,-0.6167,-0.6195,-0.6195,-0.6195,-0.6196,-0.6196,0,-0.5671,-0.5699,-0.5733,-0.5781,-0.5811,-0.5826,-0.5865,-0.589,-0.5927,-0.5964,-0.5998,-0.6047,-0.6088,-0.6129,-0.6173,-0.6193,-0.6203,-0.6203,-0.6202,-0.6208,-0.6195,-0.6186,-0.6195,-0.6195,-0.6195,-0.6195,-0.6195,-0.6195,-0.5681,-0.5719,-0.574,-0.5795,-0.5823,-0.5864,-0.5886,-0.5916,-0.5946,-0.5999,-0.6033,-0.6059,-0.6099,-0.6146,-0.6185,-0.6196,-0.6211,-0.621,-0.6223,-0.6209,-0.6209,-0.6209,-0.62,-0.6213,-0.6213,-0.6234,-0.6234,-0.6235]}]]